Time,TemperatureF,DewpointF,PressureIn,WindDirection,WindDirectionDegrees,WindSpeedMPH,WindSpeedGustMPH,Humidity,HourlyPrecipIn,Conditions,Clouds,dailyrainin,SoftwareType,DateUTC
2013-05-10 00:01:00,51.0,50.5,30.02,ESE,112,0.0,1.0,97,0.00,,,0.00,Rainwise IP-100,2013-05-10 04:01:00,
2013-05-10 00:06:00,51.0,50.5,30.02,SW,225,4.0,4.0,97,0.00,,,0.00,Rainwise IP-100,2013-05-10 04:06:00,
2013-05-10 00:11:00,51.0,50.5,30.02,SSW,202,0.0,4.0,97,0.00,,,0.00,Rainwise IP-100,2013-05-10 04:11:00,
2013-05-10 00:16:00,51.0,50.5,30.02,WSW,247,1.0,2.0,97,0.00,,,0.00,Rainwise IP-100,2013-05-10 04:16:00,
2013-05-10 00:21:00,51.0,50.5,30.02,South,180,4.0,5.0,97,0.00,,,0.00,Rainwise IP-100,2013-05-10 04:21:00,
2013-05-10 00:26:00,51.0,50.5,30.02,SSW,202,3.0,5.0,97,0.00,,,0.00,Rainwise IP-100,2013-05-10 04:26:00,
2013-05-10 00:31:00,51.0,50.5,30.02,SW,225,5.0,5.0,97,0.00,,,0.00,Rainwise IP-100,2013-05-10 04:31:00,
2013-05-10 00:36:00,51.0,50.5,30.01,SSW,202,4.0,6.0,97,0.00,,,0.00,Rainwise IP-100,2013-05-10 04:36:00,
2013-05-10 00:41:00,51.0,50.5,30.01,SSW,202,0.0,5.0,97,0.00,,,0.00,Rainwise IP-100,2013-05-10 04:41:00,
2013-05-10 00:46:00,51.0,50.5,30.02,SSW,202,0.0,1.0,97,0.00,,,0.00,Rainwise IP-100,2013-05-10 04:46:00,
2013-05-10 00:50:00,51.0,50.5,30.02,SSW,202,2.0,3.0,97,0.00,,,0.00,Rainwise IP-100,2013-05-10 04:50:00,
2013-05-10 00:51:00,51.0,50.5,30.02,SSW,202,2.0,3.0,97,0.00,,,0.00,Rainwise IP-100,2013-05-10 04:51:00,
2013-05-10 00:52:00,51.0,50.5,30.02,SSW,202,2.0,3.0,97,0.00,,,0.00,Rainwise IP-100,2013-05-10 04:52:00,
2013-05-10 00:54:00,51.0,50.5,30.02,SSW,202,2.0,3.0,97,0.00,,,0.00,Rainwise IP-100,2013-05-10 04:54:00,
2013-05-10 00:59:00,51.0,50.5,30.02,SSW,202,2.0,3.0,97,0.00,,,0.00,Rainwise IP-100,2013-05-10 04:59:00,
2013-05-10 01:04:00,51.0,50.5,30.02,SE,135,5.0,6.0,97,0.00,,,0.00,Rainwise IP-100,2013-05-10 05:04:00,
2013-05-10 01:09:00,51.0,50.5,30.02,SE,135,2.0,5.0,97,0.00,,,0.00,Rainwise IP-100,2013-05-10 05:09:00,
2013-05-10 01:14:00,51.0,50.5,30.03,SE,135,4.0,4.0,97,0.00,,,0.00,Rainwise IP-100,2013-05-10 05:14:00,
2013-05-10 01:19:00,51.0,50.5,30.03,SSW,202,3.0,4.0,97,0.00,,,0.00,Rainwise IP-100,2013-05-10 05:19:00,
2013-05-10 01:24:00,51.0,50.5,30.03,WSW,247,1.0,3.0,97,0.00,,,0.00,Rainwise IP-100,2013-05-10 05:24:00,
2013-05-10 01:29:00,49.0,48.0,30.03,ESE,112,0.0,6.0,97,0.00,,,0.00,Rainwise IP-100,2013-05-10 05:29:00,
2013-05-10 01:34:00,50.0,49.0,30.03,South,180,4.0,5.0,97,0.00,,,0.00,Rainwise IP-100,2013-05-10 05:34:00,
2013-05-10 01:39:00,50.0,49.0,30.03,SW,225,1.0,5.0,97,0.00,,,0.00,Rainwise IP-100,2013-05-10 05:39:00,
2013-05-10 01:44:00,50.0,49.0,30.03,South,180,2.0,6.0,97,0.00,,,0.00,Rainwise IP-100,2013-05-10 05:44:00,
2013-05-10 01:49:00,49.0,48.0,30.03,SW,225,5.0,6.0,97,0.00,,,0.00,Rainwise IP-100,2013-05-10 05:49:00,
2013-05-10 01:54:00,50.0,49.0,30.03,SW,225,3.0,6.0,97,0.00,,,0.00,Rainwise IP-100,2013-05-10 05:54:00,
2013-05-10 01:59:00,50.0,49.0,30.03,South,180,6.0,6.0,97,0.00,,,0.00,Rainwise IP-100,2013-05-10 05:59:00,
2013-05-10 02:04:00,50.0,49.0,30.03,South,180,7.0,7.0,97,0.00,,,0.00,Rainwise IP-100,2013-05-10 06:04:00,
2013-05-10 02:09:00,50.0,49.0,30.03,South,180,7.0,7.0,97,0.00,,,0.00,Rainwise IP-100,2013-05-10 06:09:00,
2013-05-10 02:14:00,50.0,49.0,30.03,South,180,4.0,8.0,97,0.00,,,0.00,Rainwise IP-100,2013-05-10 06:14:00,
2013-05-10 02:19:00,49.0,48.0,30.03,South,180,0.0,5.0,97,0.00,,,0.00,Rainwise IP-100,2013-05-10 06:19:00,
2013-05-10 02:24:00,49.0,48.0,30.03,SSW,202,6.0,7.0,97,0.00,,,0.00,Rainwise IP-100,2013-05-10 06:24:00,
2013-05-10 02:29:00,49.0,48.0,30.03,West,270,2.0,7.0,97,0.00,,,0.00,Rainwise IP-100,2013-05-10 06:29:00,
2013-05-10 02:34:00,50.0,49.0,30.02,SSW,202,3.0,5.0,97,0.00,,,0.00,Rainwise IP-100,2013-05-10 06:34:00,
2013-05-10 02:39:00,50.0,49.0,30.02,SW,225,4.0,6.0,97,0.00,,,0.00,Rainwise IP-100,2013-05-10 06:39:00,
2013-05-10 02:44:00,49.0,48.0,30.03,West,270,1.0,6.0,97,0.00,,,0.00,Rainwise IP-100,2013-05-10 06:44:00,
2013-05-10 02:49:00,49.0,48.0,30.03,SW,225,4.0,5.0,97,0.00,,,0.00,Rainwise IP-100,2013-05-10 06:49:00,
2013-05-10 02:54:00,50.0,49.0,30.03,SW,225,6.0,6.0,97,0.00,,,0.00,Rainwise IP-100,2013-05-10 06:54:00,
2013-05-10 02:59:00,50.0,49.0,30.03,South,180,3.0,6.0,97,0.00,,,0.00,Rainwise IP-100,2013-05-10 06:59:00,
2013-05-10 03:04:00,50.0,49.0,30.03,SW,225,6.0,7.0,97,0.00,,,0.00,Rainwise IP-100,2013-05-10 07:04:00,
2013-05-10 03:09:00,50.0,49.0,30.03,SW,225,6.0,7.0,97,0.00,,,0.00,Rainwise IP-100,2013-05-10 07:09:00,
2013-05-10 03:14:00,51.0,50.5,30.02,South,180,7.0,8.0,97,0.00,,,0.00,Rainwise IP-100,2013-05-10 07:14:00,
2013-05-10 03:19:00,50.0,49.0,30.02,West,270,4.0,7.0,97,0.00,,,0.00,Rainwise IP-100,2013-05-10 07:19:00,
2013-05-10 03:24:00,50.0,49.0,30.03,SSW,202,6.0,7.0,97,0.00,,,0.00,Rainwise IP-100,2013-05-10 07:24:00,
2013-05-10 03:29:00,50.0,49.0,30.03,West,270,0.0,7.0,97,0.00,,,0.00,Rainwise IP-100,2013-05-10 07:29:00,
2013-05-10 03:34:00,50.0,49.0,30.03,SSW,202,2.0,5.0,97,0.00,,,0.00,Rainwise IP-100,2013-05-10 07:34:00,
2013-05-10 03:39:00,50.0,49.0,30.03,West,270,4.0,4.0,97,0.00,,,0.00,Rainwise IP-100,2013-05-10 07:39:00,
2013-05-10 03:44:00,50.0,49.0,30.03,SW,225,3.0,4.0,97,0.00,,,0.00,Rainwise IP-100,2013-05-10 07:44:00,
2013-05-10 03:49:00,50.0,49.0,30.03,SW,225,3.0,4.0,97,0.00,,,0.00,Rainwise IP-100,2013-05-10 07:49:00,
2013-05-10 03:54:00,51.0,50.5,30.03,SSW,202,1.0,6.0,97,0.00,,,0.00,Rainwise IP-100,2013-05-10 07:54:00,
2013-05-10 03:59:00,51.0,50.5,30.03,SSW,202,1.0,5.0,97,0.00,,,0.00,Rainwise IP-100,2013-05-10 07:59:00,
2013-05-10 04:04:00,51.0,50.5,30.03,SW,225,6.0,6.0,97,0.00,,,0.00,Rainwise IP-100,2013-05-10 08:04:00,
2013-05-10 04:09:00,51.0,50.5,30.03,SW,225,4.0,7.0,97,0.00,,,0.00,Rainwise IP-100,2013-05-10 08:09:00,
2013-05-10 04:14:00,52.0,51.0,30.03,South,180,5.0,6.0,97,0.00,,,0.00,Rainwise IP-100,2013-05-10 08:14:00,
2013-05-10 04:19:00,52.0,51.0,30.03,SSE,157,6.0,7.0,97,0.00,,,0.00,Rainwise IP-100,2013-05-10 08:19:00,
2013-05-10 04:24:00,52.0,51.0,30.03,West,270,7.0,7.0,97,0.00,,,0.00,Rainwise IP-100,2013-05-10 08:24:00,
2013-05-10 04:29:00,52.0,51.0,30.03,SSW,202,5.0,10.0,97,0.00,,,0.00,Rainwise IP-100,2013-05-10 08:29:00,
2013-05-10 04:34:00,52.0,51.0,30.03,SE,135,6.0,7.0,97,0.00,,,0.00,Rainwise IP-100,2013-05-10 08:34:00,
2013-05-10 04:39:00,52.0,51.0,30.03,SW,225,1.0,6.0,97,0.00,,,0.00,Rainwise IP-100,2013-05-10 08:39:00,
2013-05-10 04:44:00,52.0,51.0,30.03,SW,225,6.0,6.0,97,0.00,,,0.00,Rainwise IP-100,2013-05-10 08:44:00,
2013-05-10 04:49:00,52.0,51.0,30.03,SSE,157,6.0,7.0,97,0.00,,,0.00,Rainwise IP-100,2013-05-10 08:49:00,
2013-05-10 04:54:00,52.0,51.0,30.03,SSW,202,1.0,6.0,97,0.00,,,0.00,Rainwise IP-100,2013-05-10 08:54:00,
2013-05-10 04:59:00,52.0,51.0,30.03,SSW,202,4.0,5.0,97,0.00,,,0.00,Rainwise IP-100,2013-05-10 08:59:00,
2013-05-10 05:04:00,52.0,51.0,30.03,SSW,202,0.0,5.0,97,0.00,,,0.00,Rainwise IP-100,2013-05-10 09:04:00,
2013-05-10 05:09:00,52.0,51.0,30.03,SSW,202,3.0,5.0,97,0.00,,,0.00,Rainwise IP-100,2013-05-10 09:09:00,
2013-05-10 05:14:00,52.0,51.0,30.03,SW,225,3.0,4.0,97,0.00,,,0.00,Rainwise IP-100,2013-05-10 09:14:00,
2013-05-10 05:19:00,52.0,51.0,30.03,WSW,247,5.0,6.0,97,0.00,,,0.00,Rainwise IP-100,2013-05-10 09:19:00,
2013-05-10 05:24:00,52.0,51.0,30.03,WSW,247,4.0,6.0,97,0.00,,,0.00,Rainwise IP-100,2013-05-10 09:24:00,
2013-05-10 05:29:00,52.0,51.0,30.03,SSW,202,6.0,7.0,97,0.00,,,0.00,Rainwise IP-100,2013-05-10 09:29:00,
2013-05-10 05:34:00,52.0,51.0,30.04,South,180,1.0,7.0,97,0.00,,,0.00,Rainwise IP-100,2013-05-10 09:34:00,
2013-05-10 05:39:00,52.0,51.0,30.04,SSE,157,5.0,6.0,97,0.00,,,0.00,Rainwise IP-100,2013-05-10 09:39:00,
2013-05-10 05:44:00,53.0,52.0,30.04,South,180,2.0,6.0,97,0.00,,,0.00,Rainwise IP-100,2013-05-10 09:44:00,
2013-05-10 05:49:00,53.0,52.0,30.04,South,180,3.0,5.0,97,0.00,,,0.00,Rainwise IP-100,2013-05-10 09:49:00,
2013-05-10 05:54:00,53.0,52.0,30.05,SSE,157,5.0,6.0,97,0.00,,,0.00,Rainwise IP-100,2013-05-10 09:54:00,
2013-05-10 05:59:00,53.0,52.0,30.05,South,180,5.0,6.0,97,0.00,,,0.00,Rainwise IP-100,2013-05-10 09:59:00,
2013-05-10 06:04:00,53.0,52.0,30.05,South,180,6.0,7.0,97,0.00,,,0.00,Rainwise IP-100,2013-05-10 10:04:00,
2013-05-10 06:09:00,54.0,53.5,30.05,SSE,157,6.0,7.0,97,0.00,,,0.00,Rainwise IP-100,2013-05-10 10:09:00,
2013-05-10 06:14:00,54.0,53.5,30.04,WNW,292,4.0,7.0,97,0.00,,,0.00,Rainwise IP-100,2013-05-10 10:14:00,
2013-05-10 06:19:00,53.0,52.0,30.04,NW,315,4.0,6.0,97,0.00,,,0.00,Rainwise IP-100,2013-05-10 10:19:00,
2013-05-10 06:24:00,53.0,52.0,30.05,NW,315,0.0,5.0,97,0.00,,,0.00,Rainwise IP-100,2013-05-10 10:24:00,
2013-05-10 06:29:00,53.0,52.0,30.05,NW,315,0.0,1.0,97,0.00,,,0.00,Rainwise IP-100,2013-05-10 10:29:00,
2013-05-10 06:34:00,53.0,52.0,30.05,ESE,112,2.0,6.0,97,0.00,,,0.00,Rainwise IP-100,2013-05-10 10:34:00,
2013-05-10 06:39:00,53.0,52.0,30.05,ESE,112,3.0,4.0,97,0.00,,,0.00,Rainwise IP-100,2013-05-10 10:39:00,
2013-05-10 06:44:00,53.0,52.0,30.06,WNW,292,1.0,6.0,97,0.00,,,0.00,Rainwise IP-100,2013-05-10 10:44:00,
2013-05-10 06:49:00,53.0,52.0,30.06,NW,315,3.0,6.0,97,0.00,,,0.00,Rainwise IP-100,2013-05-10 10:49:00,
2013-05-10 06:54:00,54.0,53.5,30.06,SSE,157,3.0,4.0,97,0.00,,,0.00,Rainwise IP-100,2013-05-10 10:54:00,
2013-05-10 06:59:00,54.0,53.5,30.06,SSE,157,0.0,3.0,97,0.00,,,0.00,Rainwise IP-100,2013-05-10 10:59:00,
2013-05-10 07:04:00,54.0,53.5,30.06,SSE,157,0.0,2.0,97,0.00,,,0.00,Rainwise IP-100,2013-05-10 11:04:00,
2013-05-10 07:09:00,55.0,54.5,30.06,SSE,157,2.0,4.0,97,0.00,,,0.00,Rainwise IP-100,2013-05-10 11:09:00,
2013-05-10 07:14:00,55.0,54.5,30.06,SSE,157,2.0,2.0,97,0.00,,,0.00,Rainwise IP-100,2013-05-10 11:14:00,
2013-05-10 07:19:00,55.0,54.5,30.06,SSE,157,0.0,2.0,97,0.00,,,0.00,Rainwise IP-100,2013-05-10 11:19:00,
2013-05-10 07:24:00,55.0,54.5,30.06,SSE,157,0.0,0.0,97,0.00,,,0.00,Rainwise IP-100,2013-05-10 11:24:00,
2013-05-10 07:29:00,55.0,54.5,30.06,SSE,157,0.0,0.0,97,0.00,,,0.00,Rainwise IP-100,2013-05-10 11:29:00,
2013-05-10 07:34:00,55.0,54.5,30.06,SSE,157,0.0,0.0,97,0.00,,,0.00,Rainwise IP-100,2013-05-10 11:34:00,
2013-05-10 07:39:00,55.0,54.5,30.07,NE,45,1.0,4.0,97,0.00,,,0.00,Rainwise IP-100,2013-05-10 11:39:00,
2013-05-10 07:44:00,56.0,55.0,30.06,NE,45,1.0,4.0,97,0.00,,,0.00,Rainwise IP-100,2013-05-10 11:44:00,
2013-05-10 07:49:00,56.0,55.0,30.06,North,360,6.0,7.0,97,0.00,,,0.00,Rainwise IP-100,2013-05-10 11:49:00,
2013-05-10 07:54:00,57.0,56.5,30.05,ENE,67,6.0,7.0,98,0.00,,,0.00,Rainwise IP-100,2013-05-10 11:54:00,
2013-05-10 07:59:00,57.0,56.5,30.05,East,90,4.0,6.0,98,0.00,,,0.00,Rainwise IP-100,2013-05-10 11:59:00,
2013-05-10 08:04:00,58.0,57.0,30.05,ENE,67,3.0,6.0,95,0.00,,,0.00,Rainwise IP-100,2013-05-10 12:04:00,
2013-05-10 08:09:00,59.0,57.5,30.05,ENE,67,0.0,4.0,95,0.00,,,0.00,Rainwise IP-100,2013-05-10 12:09:00,
2013-05-10 08:14:00,60.0,57.0,30.05,North,360,6.0,6.0,90,0.00,,,0.00,Rainwise IP-100,2013-05-10 12:14:00,
2013-05-10 08:19:00,60.0,57.5,30.05,NNW,337,6.0,9.0,93,0.00,,,0.00,Rainwise IP-100,2013-05-10 12:19:00,
2013-05-10 08:24:00,61.0,60.0,30.05,North,360,2.0,7.0,96,0.00,,,0.00,Rainwise IP-100,2013-05-10 12:24:00,
2013-05-10 08:29:00,62.0,60.0,30.05,North,360,3.0,5.0,93,0.00,,,0.00,Rainwise IP-100,2013-05-10 12:29:00,
2013-05-10 08:34:00,62.0,59.0,30.04,NNW,337,6.0,7.0,90,0.00,,,0.00,Rainwise IP-100,2013-05-10 12:34:00,
2013-05-10 08:39:00,63.0,58.0,30.04,NW,315,3.0,6.0,85,0.00,,,0.00,Rainwise IP-100,2013-05-10 12:39:00,
2013-05-10 08:44:00,63.0,57.0,30.04,North,360,5.0,6.0,81,0.00,,,0.00,Rainwise IP-100,2013-05-10 12:44:00,
2013-05-10 08:49:00,63.0,58.0,30.04,NW,315,3.0,6.0,85,0.00,,,0.00,Rainwise IP-100,2013-05-10 12:49:00,
2013-05-10 08:54:00,63.0,57.5,30.05,North,360,5.0,6.0,83,0.00,,,0.00,Rainwise IP-100,2013-05-10 12:54:00,
2013-05-10 08:59:00,63.0,57.0,30.05,North,360,0.0,8.0,81,0.00,,,0.00,Rainwise IP-100,2013-05-10 12:59:00,
2013-05-10 09:04:00,63.0,56.5,30.05,North,360,2.0,4.0,80,0.00,,,0.00,Rainwise IP-100,2013-05-10 13:04:00,
2013-05-10 09:09:00,62.0,56.5,30.05,WNW,292,6.0,8.0,82,0.00,,,0.00,Rainwise IP-100,2013-05-10 13:09:00,
2013-05-10 09:14:00,61.0,57.0,30.05,NW,315,11.0,16.0,87,0.00,,,0.00,Rainwise IP-100,2013-05-10 13:14:00,
2013-05-10 09:19:00,60.0,56.5,30.05,NW,315,7.0,14.0,89,0.00,,,0.00,Rainwise IP-100,2013-05-10 13:19:00,
2013-05-10 09:24:00,60.0,57.0,30.06,NW,315,4.0,9.0,90,0.00,,,0.00,Rainwise IP-100,2013-05-10 13:24:00,
2013-05-10 09:29:00,60.0,56.5,30.06,North,360,5.0,8.0,89,0.00,,,0.00,Rainwise IP-100,2013-05-10 13:29:00,
2013-05-10 09:34:00,61.0,57.5,30.06,NNE,22,8.0,8.0,88,0.00,,,0.00,Rainwise IP-100,2013-05-10 13:34:00,
2013-05-10 09:39:00,60.0,56.5,30.06,North,360,2.0,10.0,88,0.00,,,0.00,Rainwise IP-100,2013-05-10 13:39:00,
2013-05-10 09:44:00,60.0,56.5,30.06,NNW,337,5.0,8.0,89,0.00,,,0.00,Rainwise IP-100,2013-05-10 13:44:00,
2013-05-10 09:49:00,60.0,56.5,30.06,NNW,337,8.0,10.0,88,0.00,,,0.00,Rainwise IP-100,2013-05-10 13:49:00,
2013-05-10 09:54:00,60.0,56.5,30.06,NNE,22,1.0,9.0,89,0.00,,,0.00,Rainwise IP-100,2013-05-10 13:54:00,
2013-05-10 09:59:00,60.0,56.5,30.06,ENE,67,3.0,7.0,88,0.00,,,0.00,Rainwise IP-100,2013-05-10 13:59:00,
2013-05-10 10:04:00,61.0,57.0,30.06,NW,315,6.0,9.0,87,0.00,,,0.00,Rainwise IP-100,2013-05-10 14:04:00,
2013-05-10 10:09:00,61.0,57.0,30.06,North,360,4.0,10.0,87,0.00,,,0.00,Rainwise IP-100,2013-05-10 14:09:00,
2013-05-10 10:14:00,61.0,56.0,30.06,North,360,3.0,9.0,84,0.00,,,0.00,Rainwise IP-100,2013-05-10 14:14:00,
2013-05-10 10:19:00,62.0,56.5,30.06,ENE,67,2.0,7.0,83,0.00,,,0.00,Rainwise IP-100,2013-05-10 14:19:00,
2013-05-10 10:24:00,63.0,59.0,30.05,East,90,6.0,6.0,86,0.00,,,0.00,Rainwise IP-100,2013-05-10 14:24:00,
2013-05-10 10:29:00,62.0,56.5,30.05,SE,135,0.0,6.0,83,0.00,,,0.00,Rainwise IP-100,2013-05-10 14:29:00,
2013-05-10 10:34:00,63.0,57.5,30.06,East,90,2.0,7.0,82,0.00,,,0.00,Rainwise IP-100,2013-05-10 14:34:00,
2013-05-10 10:39:00,62.0,56.5,30.06,East,90,5.0,7.0,82,0.00,,,0.00,Rainwise IP-100,2013-05-10 14:39:00,
2013-05-10 10:44:00,63.0,57.5,30.06,East,90,4.0,7.0,82,0.00,,,0.00,Rainwise IP-100,2013-05-10 14:44:00,
2013-05-10 10:49:00,63.0,57.5,30.06,East,90,3.0,7.0,82,0.00,,,0.00,Rainwise IP-100,2013-05-10 14:49:00,
2013-05-10 10:54:00,62.0,56.5,30.07,East,90,4.0,6.0,82,0.00,,,0.00,Rainwise IP-100,2013-05-10 14:54:00,
2013-05-10 10:59:00,62.0,57.0,30.07,East,90,5.0,6.0,84,0.00,,,0.00,Rainwise IP-100,2013-05-10 14:59:00,
2013-05-10 11:04:00,63.0,57.5,30.07,East,90,2.0,6.0,82,0.00,,,0.00,Rainwise IP-100,2013-05-10 15:04:00,
2013-05-10 11:09:00,64.0,57.0,30.07,North,360,2.0,7.0,79,0.00,,,0.00,Rainwise IP-100,2013-05-10 15:09:00,
2013-05-10 11:14:00,65.0,57.0,30.05,ENE,67,4.0,5.0,76,0.00,,,0.00,Rainwise IP-100,2013-05-10 15:14:00,
2013-05-10 11:19:00,66.0,57.0,30.05,ENE,67,3.0,7.0,73,0.00,,,0.00,Rainwise IP-100,2013-05-10 15:19:00,
2013-05-10 11:24:00,66.0,57.0,30.05,South,180,2.0,7.0,74,0.00,,,0.00,Rainwise IP-100,2013-05-10 15:24:00,
2013-05-10 11:29:00,67.0,56.5,30.05,NNE,22,2.0,7.0,68,0.00,,,0.00,Rainwise IP-100,2013-05-10 15:29:00,
2013-05-10 11:34:00,67.0,58.0,30.04,NW,315,0.0,9.0,73,0.00,,,0.00,Rainwise IP-100,2013-05-10 15:34:00,
2013-05-10 11:39:00,66.0,57.0,30.04,NNW,337,5.0,10.0,74,0.00,,,0.00,Rainwise IP-100,2013-05-10 15:39:00,
2013-05-10 11:44:00,66.0,57.0,30.05,NW,315,3.0,7.0,73,0.00,,,0.00,Rainwise IP-100,2013-05-10 15:44:00,
2013-05-10 11:49:00,67.0,57.5,30.05,ENE,67,5.0,10.0,72,0.00,,,0.00,Rainwise IP-100,2013-05-10 15:49:00,
2013-05-10 11:54:00,68.0,55.0,30.04,NNW,337,6.0,10.0,64,0.00,,,0.00,Rainwise IP-100,2013-05-10 15:54:00,
2013-05-10 11:59:00,68.0,56.5,30.04,SW,225,0.0,6.0,67,0.00,,,0.00,Rainwise IP-100,2013-05-10 15:59:00,
2013-05-10 12:04:00,69.0,57.0,30.03,North,360,2.0,6.0,66,0.00,,,0.00,Rainwise IP-100,2013-05-10 16:04:00,
2013-05-10 12:09:00,68.0,56.5,30.03,NE,45,5.0,6.0,66,0.00,,,0.00,Rainwise IP-100,2013-05-10 16:09:00,
2013-05-10 12:14:00,68.0,56.5,30.03,WNW,292,10.0,10.0,67,0.00,,,0.00,Rainwise IP-100,2013-05-10 16:14:00,
2013-05-10 12:19:00,67.0,57.0,30.03,NNW,337,7.0,12.0,70,0.00,,,0.00,Rainwise IP-100,2013-05-10 16:19:00,
2013-05-10 12:24:00,68.0,55.0,30.03,West,270,0.0,9.0,64,0.00,,,0.00,Rainwise IP-100,2013-05-10 16:24:00,
2013-05-10 12:29:00,69.0,54.5,30.03,NE,45,4.0,6.0,60,0.00,,,0.00,Rainwise IP-100,2013-05-10 16:29:00,
2013-05-10 12:34:00,69.0,53.0,30.01,WSW,247,2.0,12.0,57,0.00,,,0.00,Rainwise IP-100,2013-05-10 16:34:00,
2013-05-10 12:39:00,69.0,53.0,30.01,North,360,7.0,7.0,57,0.00,,,0.00,Rainwise IP-100,2013-05-10 16:39:00,
2013-05-10 12:44:00,70.0,52.0,30.01,North,360,2.0,7.0,53,0.00,,,0.00,Rainwise IP-100,2013-05-10 16:44:00,
2013-05-10 12:49:00,69.0,51.0,30.01,North,360,6.0,7.0,54,0.00,,,0.00,Rainwise IP-100,2013-05-10 16:49:00,
2013-05-10 12:54:00,70.0,54.5,30.01,SW,225,2.0,8.0,58,0.00,,,0.00,Rainwise IP-100,2013-05-10 16:54:00,
2013-05-10 12:59:00,70.0,54.0,30.01,West,270,4.0,6.0,57,0.00,,,0.00,Rainwise IP-100,2013-05-10 16:59:00,
2013-05-10 13:04:00,71.0,54.0,30.01,NNE,22,1.0,6.0,55,0.00,,,0.00,Rainwise IP-100,2013-05-10 17:04:00,
2013-05-10 13:09:00,70.0,53.0,30.01,East,90,5.0,6.0,54,0.00,,,0.00,Rainwise IP-100,2013-05-10 17:09:00,
2013-05-10 13:14:00,70.0,53.5,30.01,ENE,67,3.0,7.0,55,0.00,,,0.00,Rainwise IP-100,2013-05-10 17:14:00,
2013-05-10 13:19:00,70.0,51.0,30.01,East,90,5.0,7.0,51,0.00,,,0.00,Rainwise IP-100,2013-05-10 17:19:00,
2013-05-10 13:24:00,71.0,51.0,29.99,North,360,3.0,8.0,50,0.00,,,0.00,Rainwise IP-100,2013-05-10 17:24:00,
2013-05-10 13:29:00,72.0,51.0,29.99,NE,45,2.0,8.0,48,0.00,,,0.00,Rainwise IP-100,2013-05-10 17:29:00,
2013-05-10 13:34:00,71.0,54.5,29.99,North,360,2.0,7.0,57,0.00,,,0.00,Rainwise IP-100,2013-05-10 17:34:00,
2013-05-10 13:39:00,70.0,51.0,29.99,East,90,2.0,7.0,51,0.00,,,0.00,Rainwise IP-100,2013-05-10 17:39:00,
2013-05-10 13:44:00,70.0,53.0,29.99,East,90,6.0,9.0,54,0.00,,,0.00,Rainwise IP-100,2013-05-10 17:44:00,
2013-05-10 13:49:00,69.0,53.5,29.99,ENE,67,3.0,8.0,58,0.00,,,0.00,Rainwise IP-100,2013-05-10 17:49:00,
2013-05-10 13:54:00,70.0,54.5,30.00,East,90,0.0,6.0,58,0.00,,,0.00,Rainwise IP-100,2013-05-10 17:54:00,
2013-05-10 13:59:00,70.0,53.0,30.00,North,360,0.0,6.0,54,0.00,,,0.00,Rainwise IP-100,2013-05-10 17:59:00,
2013-05-10 14:04:00,70.0,51.0,30.00,NNW,337,2.0,6.0,52,0.00,,,0.00,Rainwise IP-100,2013-05-10 18:04:00,
2013-05-10 14:09:00,71.0,53.5,30.00,NNW,337,0.0,4.0,54,0.00,,,0.00,Rainwise IP-100,2013-05-10 18:09:00,
2013-05-10 14:14:00,73.0,54.0,29.98,NE,45,1.0,1.0,51,0.00,,,0.00,Rainwise IP-100,2013-05-10 18:14:00,
2013-05-10 14:19:00,72.0,54.0,29.98,East,90,4.0,5.0,53,0.00,,,0.00,Rainwise IP-100,2013-05-10 18:19:00,
2013-05-10 14:24:00,70.0,53.5,29.99,East,90,3.0,6.0,55,0.00,,,0.00,Rainwise IP-100,2013-05-10 18:24:00,
2013-05-10 14:29:00,71.0,52.0,29.99,East,90,0.0,4.0,51,0.00,,,0.00,Rainwise IP-100,2013-05-10 18:29:00,
2013-05-10 14:34:00,72.0,52.0,29.98,NNW,337,5.0,7.0,49,0.00,,,0.00,Rainwise IP-100,2013-05-10 18:34:00,
2013-05-10 14:39:00,70.0,51.0,29.98,NW,315,6.0,8.0,52,0.00,,,0.00,Rainwise IP-100,2013-05-10 18:39:00,
2013-05-10 14:44:00,69.0,52.0,29.99,NW,315,6.0,7.0,55,0.00,,,0.00,Rainwise IP-100,2013-05-10 18:44:00,
2013-05-10 14:49:00,69.0,53.5,29.99,NNW,337,3.0,7.0,58,0.00,,,0.00,Rainwise IP-100,2013-05-10 18:49:00,
2013-05-10 14:54:00,68.0,54.0,30.00,NNW,337,7.0,8.0,61,0.00,,,0.00,Rainwise IP-100,2013-05-10 18:54:00,
2013-05-10 14:59:00,68.0,54.5,30.00,NNW,337,5.0,9.0,62,0.00,,,0.00,Rainwise IP-100,2013-05-10 18:59:00,
2013-05-10 15:04:00,67.0,55.0,29.99,NW,315,4.0,10.0,65,0.00,,,0.00,Rainwise IP-100,2013-05-10 19:04:00,
2013-05-10 15:09:00,67.0,55.0,29.99,NNW,337,6.0,7.0,66,0.00,,,0.00,Rainwise IP-100,2013-05-10 19:09:00,
2013-05-10 15:14:00,68.0,55.0,29.99,NNW,337,5.0,7.0,64,0.00,,,0.00,Rainwise IP-100,2013-05-10 19:14:00,
2013-05-10 15:19:00,68.0,54.5,29.99,NNW,337,1.0,7.0,62,0.00,,,0.00,Rainwise IP-100,2013-05-10 19:19:00,
2013-05-10 15:24:00,69.0,55.0,29.98,North,360,2.0,6.0,62,0.00,,,0.00,Rainwise IP-100,2013-05-10 19:24:00,
2013-05-10 15:29:00,70.0,55.0,29.98,NNW,337,3.0,6.0,60,0.00,,,0.00,Rainwise IP-100,2013-05-10 19:29:00,
2013-05-10 15:34:00,70.0,55.0,29.97,NNW,337,6.0,7.0,59,0.00,,,0.00,Rainwise IP-100,2013-05-10 19:34:00,
2013-05-10 15:39:00,71.0,54.0,29.97,North,360,2.0,7.0,55,0.00,,,0.00,Rainwise IP-100,2013-05-10 19:39:00,
2013-05-10 15:44:00,71.0,54.5,29.96,NW,315,4.0,7.0,56,0.00,,,0.00,Rainwise IP-100,2013-05-10 19:44:00,
2013-05-10 15:49:00,72.0,56.0,29.96,ENE,67,5.0,5.0,57,0.00,,,0.00,Rainwise IP-100,2013-05-10 19:49:00,
2013-05-10 15:54:00,71.0,53.0,29.96,ENE,67,0.0,6.0,53,0.00,,,0.00,Rainwise IP-100,2013-05-10 19:54:00,
2013-05-10 15:59:00,71.0,54.5,29.96,ENE,67,0.0,4.0,57,0.00,,,0.00,Rainwise IP-100,2013-05-10 19:59:00,
2013-05-10 16:04:00,69.0,54.0,29.98,East,90,7.0,7.0,59,0.00,,,0.00,Rainwise IP-100,2013-05-10 20:04:00,
2013-05-10 16:09:00,68.0,54.5,29.98,East,90,6.0,7.0,63,0.00,,,0.00,Rainwise IP-100,2013-05-10 20:09:00,
2013-05-10 16:14:00,68.0,55.0,29.98,East,90,4.0,8.0,64,0.00,,,0.00,Rainwise IP-100,2013-05-10 20:14:00,
2013-05-10 16:19:00,68.0,57.0,29.98,East,90,0.0,6.0,68,0.00,,,0.00,Rainwise IP-100,2013-05-10 20:19:00,
2013-05-10 16:24:00,67.0,57.0,29.98,NE,45,0.0,3.0,70,0.00,,,0.00,Rainwise IP-100,2013-05-10 20:24:00,
2013-05-10 16:29:00,66.0,57.0,29.98,South,180,2.0,4.0,74,0.00,,,0.00,Rainwise IP-100,2013-05-10 20:29:00,
2013-05-10 16:34:00,66.0,57.0,30.00,South,180,1.0,4.0,73,0.00,,,0.00,Rainwise IP-100,2013-05-10 20:34:00,
2013-05-10 16:39:00,66.0,56.0,30.00,South,180,4.0,5.0,71,0.00,,,0.00,Rainwise IP-100,2013-05-10 20:39:00,
2013-05-10 16:44:00,65.0,57.0,30.00,SE,135,7.0,12.0,75,0.00,,,0.00,Rainwise IP-100,2013-05-10 20:44:00,
2013-05-10 16:49:00,64.0,54.5,30.00,East,90,3.0,12.0,72,0.00,,,0.00,Rainwise IP-100,2013-05-10 20:49:00,
2013-05-10 16:54:00,64.0,56.0,30.00,East,90,4.0,6.0,75,0.00,,,0.00,Rainwise IP-100,2013-05-10 20:54:00,
2013-05-10 16:59:00,65.0,57.0,30.00,East,90,2.0,5.0,75,0.00,,,0.00,Rainwise IP-100,2013-05-10 20:59:00,
2013-05-10 17:04:00,65.0,54.5,29.99,SSE,157,3.0,6.0,70,0.00,,,0.00,Rainwise IP-100,2013-05-10 21:04:00,
2013-05-10 17:09:00,66.0,57.0,29.99,SW,225,2.0,6.0,73,0.00,,,0.00,Rainwise IP-100,2013-05-10 21:09:00,
2013-05-10 17:14:00,66.0,56.5,29.99,SW,225,1.0,4.0,72,0.00,,,0.00,Rainwise IP-100,2013-05-10 21:14:00,
2013-05-10 17:19:00,66.0,57.0,29.99,WNW,292,6.0,6.0,73,0.00,,,0.00,Rainwise IP-100,2013-05-10 21:19:00,
2013-05-10 17:24:00,66.0,57.0,29.99,West,270,2.0,7.0,73,0.00,,,0.00,Rainwise IP-100,2013-05-10 21:24:00,
2013-05-10 17:29:00,66.0,58.0,29.99,West,270,3.0,4.0,76,0.00,,,0.00,Rainwise IP-100,2013-05-10 21:29:00,
2013-05-10 17:34:00,66.0,58.0,29.98,NW,315,2.0,4.0,76,0.00,,,0.00,Rainwise IP-100,2013-05-10 21:34:00,
2013-05-10 17:39:00,66.0,58.0,29.98,NW,315,3.0,4.0,76,0.00,,,0.00,Rainwise IP-100,2013-05-10 21:39:00,
2013-05-10 17:44:00,66.0,57.5,29.98,NW,315,0.0,4.0,75,0.00,,,0.00,Rainwise IP-100,2013-05-10 21:44:00,
2013-05-10 17:49:00,66.0,57.5,29.98,NW,315,0.0,0.0,75,0.00,,,0.00,Rainwise IP-100,2013-05-10 21:49:00,
2013-05-10 17:54:00,66.0,58.0,29.97,NW,315,0.0,0.0,77,0.00,,,0.00,Rainwise IP-100,2013-05-10 21:54:00,
2013-05-10 17:58:00,66.0,57.0,29.97,NW,315,0.0,0.0,74,0.00,,,0.00,Rainwise IP-100,2013-05-10 21:58:00,
2013-05-10 18:03:00,66.0,57.0,29.98,NNE,22,2.0,6.0,74,0.00,,,0.00,Rainwise IP-100,2013-05-10 22:03:00,
2013-05-10 18:07:00,66.0,57.0,29.98,NE,45,2.0,5.0,74,0.00,,,0.00,Rainwise IP-100,2013-05-10 22:07:00,
2013-05-10 18:12:00,66.0,57.0,29.98,NE,45,2.0,2.0,74,0.00,,,0.00,Rainwise IP-100,2013-05-10 22:12:00,
2013-05-10 18:17:00,65.0,57.0,29.98,NE,45,4.0,4.0,75,0.00,,,0.00,Rainwise IP-100,2013-05-10 22:17:00,
2013-05-10 18:22:00,65.0,57.0,29.97,NE,45,5.0,6.0,75,0.00,,,0.00,Rainwise IP-100,2013-05-10 22:22:00,
2013-05-10 18:27:00,65.0,57.5,29.97,NE,45,2.0,5.0,78,0.00,,,0.00,Rainwise IP-100,2013-05-10 22:27:00,
2013-05-10 18:32:00,65.0,57.5,29.97,NE,45,2.0,4.0,78,0.00,,,0.00,Rainwise IP-100,2013-05-10 22:32:00,
2013-05-10 18:37:00,64.0,57.0,29.97,NE,45,4.0,4.0,79,0.00,,,0.00,Rainwise IP-100,2013-05-10 22:37:00,
2013-05-10 18:42:00,64.0,57.0,29.97,NE,45,1.0,4.0,79,0.00,,,0.00,Rainwise IP-100,2013-05-10 22:42:00,
2013-05-10 18:47:00,64.0,58.0,29.98,NE,45,3.0,4.0,81,0.00,,,0.00,Rainwise IP-100,2013-05-10 22:47:00,
2013-05-10 18:52:00,64.0,58.0,29.97,NE,45,3.0,4.0,82,0.00,,,0.00,Rainwise IP-100,2013-05-10 22:52:00,
2013-05-10 18:57:00,64.0,58.0,29.97,NE,45,1.0,3.0,82,0.00,,,0.00,Rainwise IP-100,2013-05-10 22:57:00,
2013-05-10 19:02:00,64.0,59.0,29.97,NE,45,1.0,3.0,84,0.00,,,0.00,Rainwise IP-100,2013-05-10 23:02:00,
2013-05-10 19:07:00,63.0,59.0,29.97,NE,45,2.0,3.0,86,0.00,,,0.00,Rainwise IP-100,2013-05-10 23:07:00,
2013-05-10 19:12:00,63.0,59.0,29.97,NE,45,0.0,2.0,87,0.00,,,0.00,Rainwise IP-100,2013-05-10 23:12:00,
2013-05-10 19:17:00,63.0,59.5,29.98,NE,45,0.0,0.0,88,0.00,,,0.00,Rainwise IP-100,2013-05-10 23:17:00,
2013-05-10 19:22:00,63.0,59.5,29.97,NE,45,0.0,0.0,88,0.00,,,0.00,Rainwise IP-100,2013-05-10 23:22:00,
2013-05-10 19:27:00,62.0,58.0,29.97,NE,45,0.0,0.0,88,0.00,,,0.00,Rainwise IP-100,2013-05-10 23:27:00,
2013-05-10 19:32:00,62.0,59.0,29.97,NE,45,0.0,0.0,89,0.00,,,0.00,Rainwise IP-100,2013-05-10 23:32:00,
2013-05-10 19:37:00,62.0,59.0,29.97,NE,45,0.0,0.0,90,0.00,,,0.00,Rainwise IP-100,2013-05-10 23:37:00,
2013-05-10 19:42:00,61.0,59.0,29.97,NE,45,1.0,2.0,92,0.00,,,0.00,Rainwise IP-100,2013-05-10 23:42:00,
2013-05-10 19:47:00,61.0,59.0,29.98,NE,45,0.0,2.0,93,0.00,,,0.00,Rainwise IP-100,2013-05-10 23:47:00,
2013-05-10 19:52:00,61.0,59.5,29.98,NE,45,0.0,0.0,94,0.00,,,0.00,Rainwise IP-100,2013-05-10 23:52:00,
2013-05-10 19:57:00,61.0,59.5,29.98,NE,45,0.0,0.0,94,0.00,,,0.00,Rainwise IP-100,2013-05-10 23:57:00,
2013-05-10 20:02:00,61.0,59.5,29.98,NE,45,2.0,2.0,94,0.00,,,0.00,Rainwise IP-100,2013-05-11 00:02:00,
2013-05-10 20:07:00,61.0,59.0,29.97,NE,45,1.0,2.0,93,0.00,,,0.00,Rainwise IP-100,2013-05-11 00:07:00,
2013-05-10 20:12:00,61.0,59.0,29.97,South,180,5.0,6.0,92,0.00,,,0.00,Rainwise IP-100,2013-05-11 00:12:00,
2013-05-10 20:17:00,61.0,59.5,29.97,SSE,157,2.0,6.0,94,0.00,,,0.00,Rainwise IP-100,2013-05-11 00:17:00,
2013-05-10 20:22:00,61.0,59.5,29.97,South,180,2.0,6.0,95,0.00,,,0.00,Rainwise IP-100,2013-05-11 00:22:00,
2013-05-10 20:27:00,61.0,59.5,29.97,South,180,0.0,3.0,95,0.00,,,0.00,Rainwise IP-100,2013-05-11 00:27:00,
2013-05-10 20:32:00,60.0,59.0,29.97,South,180,1.0,0.0,96,0.00,,,0.00,Rainwise IP-100,2013-05-11 00:32:00,
2013-05-10 20:37:00,60.0,59.0,29.97,SSE,157,2.0,4.0,96,0.00,,,0.00,Rainwise IP-100,2013-05-11 00:37:00,
2013-05-10 20:42:00,60.0,58.0,29.97,SSE,157,0.0,3.0,95,0.00,,,0.00,Rainwise IP-100,2013-05-11 00:42:00,
2013-05-10 20:47:00,60.0,59.0,29.97,SSE,157,0.0,1.0,96,0.00,,,0.00,Rainwise IP-100,2013-05-11 00:47:00,
2013-05-10 20:52:00,60.0,59.0,29.96,SSE,157,2.0,2.0,97,0.00,,,0.00,Rainwise IP-100,2013-05-11 00:52:00,
2013-05-10 20:57:00,60.0,59.0,29.96,SSE,157,1.0,4.0,97,0.00,,,0.00,Rainwise IP-100,2013-05-11 00:57:00,
2013-05-10 21:02:00,60.0,59.0,29.96,SSE,157,4.0,5.0,96,0.00,,,0.00,Rainwise IP-100,2013-05-11 01:02:00,
2013-05-10 21:07:00,60.0,59.0,29.96,SSE,157,5.0,5.0,96,0.00,,,0.00,Rainwise IP-100,2013-05-11 01:07:00,
2013-05-10 21:12:00,60.0,58.0,29.96,SSE,157,3.0,5.0,95,0.00,,,0.00,Rainwise IP-100,2013-05-11 01:12:00,
2013-05-10 21:17:00,59.0,58.0,29.96,SSE,157,0.0,4.0,97,0.00,,,0.00,Rainwise IP-100,2013-05-11 01:17:00,
2013-05-10 21:22:00,59.0,58.0,29.97,South,180,2.0,2.0,98,0.00,,,0.00,Rainwise IP-100,2013-05-11 01:22:00,
2013-05-10 21:27:00,59.0,58.0,29.97,SW,225,3.0,4.0,98,0.00,,,0.00,Rainwise IP-100,2013-05-11 01:27:00,
2013-05-10 21:32:00,59.0,58.0,29.97,SW,225,2.0,5.0,98,0.00,,,0.00,Rainwise IP-100,2013-05-11 01:32:00,
2013-05-10 21:37:00,59.0,58.0,29.97,South,180,2.0,2.0,97,0.00,,,0.00,Rainwise IP-100,2013-05-11 01:37:00,
2013-05-10 21:42:00,59.0,58.0,29.96,South,180,2.0,4.0,98,0.00,,,0.00,Rainwise IP-100,2013-05-11 01:42:00,
2013-05-10 21:47:00,58.0,57.5,29.96,SSE,157,2.0,4.0,98,0.00,,,0.00,Rainwise IP-100,2013-05-11 01:47:00,
2013-05-10 21:52:00,58.0,57.5,29.96,SSE,157,3.0,3.0,98,0.00,,,0.00,Rainwise IP-100,2013-05-11 01:52:00,
2013-05-10 21:57:00,58.0,57.5,29.96,SSE,157,2.0,4.0,98,0.00,,,0.00,Rainwise IP-100,2013-05-11 01:57:00,
2013-05-10 22:02:00,58.0,57.5,29.96,SW,225,2.0,3.0,98,0.00,,,0.00,Rainwise IP-100,2013-05-11 02:02:00,
2013-05-10 22:07:00,57.0,56.5,29.96,SW,225,2.0,3.0,98,0.00,,,0.00,Rainwise IP-100,2013-05-11 02:07:00,
2013-05-10 22:12:00,57.0,56.5,29.96,SW,225,3.0,5.0,98,0.00,,,0.00,Rainwise IP-100,2013-05-11 02:12:00,
2013-05-10 22:17:00,57.0,56.5,29.96,SW,225,1.0,5.0,98,0.00,,,0.00,Rainwise IP-100,2013-05-11 02:17:00,
2013-05-10 22:22:00,57.0,56.5,29.96,SW,225,1.0,3.0,98,0.00,,,0.00,Rainwise IP-100,2013-05-11 02:22:00,
2013-05-10 22:27:00,57.0,56.5,29.96,SW,225,0.0,2.0,98,0.00,,,0.00,Rainwise IP-100,2013-05-11 02:27:00,
2013-05-10 22:32:00,57.0,56.5,29.95,SSW,202,0.0,0.0,98,0.00,,,0.00,Rainwise IP-100,2013-05-11 02:32:00,
2013-05-10 22:37:00,57.0,56.5,29.95,SSW,202,0.0,0.0,98,0.00,,,0.00,Rainwise IP-100,2013-05-11 02:37:00,
2013-05-10 22:42:00,57.0,56.5,29.94,SSW,202,0.0,0.0,98,0.00,,,0.00,Rainwise IP-100,2013-05-11 02:42:00,
2013-05-10 22:47:00,56.0,55.0,29.94,SSW,202,0.0,0.0,97,0.00,,,0.00,Rainwise IP-100,2013-05-11 02:47:00,
2013-05-10 22:52:00,56.0,55.0,29.94,SSW,202,0.0,0.0,97,0.00,,,0.00,Rainwise IP-100,2013-05-11 02:52:00,
2013-05-10 22:57:00,56.0,55.0,29.94,SSW,202,2.0,2.0,97,0.00,,,0.00,Rainwise IP-100,2013-05-11 02:57:00,
2013-05-10 23:02:00,57.0,56.5,29.93,SW,225,4.0,4.0,98,0.00,,,0.00,Rainwise IP-100,2013-05-11 03:02:00,
2013-05-10 23:07:00,56.0,55.0,29.93,SW,225,4.0,4.0,97,0.00,,,0.00,Rainwise IP-100,2013-05-11 03:07:00,
2013-05-10 23:12:00,57.0,56.5,29.93,WSW,247,3.0,5.0,98,0.00,,,0.00,Rainwise IP-100,2013-05-11 03:12:00,
2013-05-10 23:17:00,57.0,56.5,29.93,SSW,202,3.0,5.0,98,0.00,,,0.00,Rainwise IP-100,2013-05-11 03:17:00,
2013-05-10 23:22:00,57.0,56.5,29.92,SE,135,5.0,6.0,98,0.00,,,0.00,Rainwise IP-100,2013-05-11 03:22:00,
2013-05-10 23:27:00,57.0,56.5,29.92,SE,135,2.0,6.0,98,0.00,,,0.00,Rainwise IP-100,2013-05-11 03:27:00,
2013-05-10 23:32:00,57.0,56.5,29.92,SE,135,1.0,3.0,98,0.00,,,0.00,Rainwise IP-100,2013-05-11 03:32:00,
2013-05-10 23:37:00,56.0,55.0,29.92,SE,135,0.0,1.0,97,0.00,,,0.00,Rainwise IP-100,2013-05-11 03:37:00,
2013-05-10 23:42:00,56.0,55.0,29.92,SE,135,2.0,0.0,97,0.00,,,0.00,Rainwise IP-100,2013-05-11 03:42:00,
2013-05-10 23:47:00,56.0,55.0,29.92,SE,135,0.0,2.0,97,0.00,,,0.00,Rainwise IP-100,2013-05-11 03:47:00,
2013-05-10 23:52:00,56.0,55.0,29.92,SE,135,1.0,3.0,97,0.00,,,0.00,Rainwise IP-100,2013-05-11 03:52:00,
2013-05-10 23:57:00,56.0,55.0,29.92,SE,135,2.0,3.0,97,0.00,,,0.00,Rainwise IP-100,2013-05-11 03:57:00,